Weather History for Shelby, NC

Change the Weather History Date:

Saturday, December 8, 2012

  Actual Average (KHKY) Record (KHKY)
Temperature  
Mean Temperature 55 °F -  
Max Temperature 68 °F 53 °F 75 °F (1998)
Min Temperature 42 °F 33 °F 17 °F (2006)
Degree Days  
Heating Degree Days 10    
Growing Degree Days 5 (Base 50)    
Moisture  
Dew Point 48 °F    
Average Humidity 84    
Maximum Humidity 100    
Minimum Humidity 52    
Precipitation  
Precipitation 0.00 in - - ()
Sea Level Pressure  
Sea Level Pressure 30.02 in    
Wind  
Wind Speed 2 mph (SSW)    
Max Wind Speed 12 mph    
Max Gust Speed -    
Visibility 5 miles    
Events Fog    
Averages and records for this station are not official NWS values.
T = Trace of Precipitation, MM = Missing Value Source: NWS Daily Summary

Daily Weather History Graph

Daily Weather History Graph

Search for Another Location

Airport:

Trip Planner

Search our weather history database for the weather conditions in past years. The results will help you decide how hot, cold, wet, or windy it might be!

Date:

Astronomy

Dec. 08, 2012 Rise Set
Actual Time 7:22 AM EST 5:14 PM EST
Civil Twilight 6:54 AM EST 5:42 PM EST
Nautical Twilight 6:23 AM EST 6:13 PM EST
Astronomical Twilight 5:52 AM EST 6:44 PM EST
Moon 1:55 AM EST (12/8) 1:35 PM EST (12/8)
Length of Visible Light 10h 47m
Length of Day
9h 51m
Waning Crescent, 28% of the Moon is Illuminated
Dec 8
Waning Crescent
Dec 13
New
Dec 20
First Quarter
Dec 28
Full
Jan 4
Last Quarter

Hourly Weather History & Observations

Time (EST) Temp. Windchill Dew Point Humidity Pressure Visibility Wind Dir Wind Speed Gust Speed Precip Events Conditions
12:15 AM 42.8 °F - 42.8 °F 100% 30.05 in 0.5 mi Calm Calm - N/A Fog Fog
12:35 AM 44.6 °F - 42.8 °F 93% 30.04 in 0.2 mi Calm Calm - N/A Fog Fog
12:55 AM 44.6 °F - 42.8 °F 93% 30.04 in 0.2 mi Calm Calm - N/A Fog Fog
1:15 AM 44.6 °F - 44.6 °F 100% 30.04 in 0.2 mi Calm Calm - N/A Fog Fog
1:35 AM 44.6 °F - 44.6 °F 100% 30.03 in 0.2 mi Calm Calm - N/A Fog Fog
1:55 AM 44.6 °F - 44.6 °F 100% 30.02 in 0.2 mi Calm Calm - N/A Fog Fog
2:15 AM 44.6 °F - 44.6 °F 100% 30.01 in 0.2 mi Calm Calm - N/A Fog Fog
2:35 AM 44.6 °F 43.1 °F 44.6 °F 100% 30.03 in 0.2 mi West 3.5 mph - N/A Fog Fog
2:55 AM 44.6 °F - 44.6 °F 100% 30.02 in 0.2 mi Calm Calm - N/A Fog Fog
3:15 AM 44.6 °F - 44.6 °F 100% 30.01 in 0.2 mi Calm Calm - N/A Fog Fog
3:55 AM 44.6 °F - 44.6 °F 100% 30.01 in 0.2 mi Calm Calm - N/A Fog Fog
4:15 AM 44.6 °F - 44.6 °F 100% 30.01 in 0.2 mi Calm Calm - N/A Fog Fog
4:35 AM 44.6 °F - 42.8 °F 93% 30.01 in 0.2 mi Calm Calm - N/A Fog Fog
4:55 AM 44.6 °F - 42.8 °F 93% 30.01 in 0.2 mi Calm Calm - N/A Fog Fog
5:15 AM 44.6 °F - 42.8 °F 93% 30.01 in 0.2 mi Calm Calm - N/A Fog Fog
5:35 AM 44.6 °F - 42.8 °F 93% 30.01 in 0.2 mi Calm Calm - N/A Fog Fog
6:15 AM 44.6 °F - 42.8 °F 93% 30.02 in 0.2 mi Calm Calm - N/A Fog Fog
6:35 AM 42.8 °F - 42.8 °F 100% 30.02 in 0.2 mi Calm Calm - N/A Fog Fog
6:55 AM 42.8 °F - 42.8 °F 100% 30.03 in 0.2 mi Calm Calm - N/A Fog Fog
7:15 AM 42.8 °F - 42.8 °F 100% 30.03 in 0.2 mi Calm Calm - N/A Fog Fog
7:35 AM 42.8 °F - 42.8 °F 100% 30.03 in 0.2 mi Calm Calm - N/A Fog Fog
7:55 AM 42.8 °F - 42.8 °F 100% 30.04 in 0.2 mi Calm Calm - N/A Fog Fog
8:15 AM 42.8 °F - 42.8 °F 100% 30.04 in 0.2 mi Calm Calm - N/A Fog Fog
8:35 AM 42.8 °F - 42.8 °F 100% 30.04 in 0.2 mi Calm Calm - N/A Fog Fog
8:55 AM 42.8 °F 41.1 °F 42.8 °F 100% 30.04 in 0.2 mi SSW 3.5 mph - N/A Fog Fog
9:15 AM 44.6 °F - 42.8 °F 93% 30.05 in 0.2 mi Calm Calm - N/A Fog Fog
9:35 AM 44.6 °F 43.1 °F 44.6 °F 100% 30.06 in 0.2 mi SW 3.5 mph - N/A Fog Fog
9:55 AM 44.6 °F - 44.6 °F 100% 30.05 in 0.8 mi Calm Calm - N/A   Overcast
10:15 AM 46.4 °F - 44.6 °F 93% 30.06 in 1.2 mi Calm Calm - N/A   Overcast
10:35 AM 46.4 °F - 46.4 °F 100% 30.06 in 3.0 mi Calm Calm - N/A   Mostly Cloudy
10:55 AM 50.0 °F - 48.2 °F 94% 30.05 in 5.0 mi Calm Calm - N/A   Scattered Clouds
11:15 AM 51.8 °F - 51.8 °F 100% 30.04 in 7.0 mi Calm Calm - N/A   Clear
11:35 AM 53.6 °F - 51.8 °F 94% 30.04 in 7.0 mi Calm Calm - N/A   Clear
11:55 AM 55.4 °F - 55.4 °F 100% 30.02 in 10.0 mi Calm Calm - N/A   Clear
12:15 PM 59.0 °F - 50.0 °F 72% 30.01 in 10.0 mi SSW 4.6 mph - N/A   Clear
12:35 PM 60.8 °F - 50.0 °F 68% 30.01 in 10.0 mi SSW 3.5 mph - N/A   Clear
12:55 PM 62.6 °F - 50.0 °F 63% 30.00 in 10.0 mi SSW 6.9 mph - N/A   Clear
1:15 PM 64.4 °F - 50.0 °F 59% 30.00 in 10.0 mi SW 8.1 mph - N/A   Clear
1:35 PM 64.4 °F - 50.0 °F 59% 29.99 in 10.0 mi SW 11.5 mph - N/A   Clear
1:55 PM 68.0 °F - 50.0 °F 52% 29.99 in 10.0 mi SW 9.2 mph - N/A   Clear
2:15 PM 68.0 °F - 50.0 °F 52% 29.98 in 10.0 mi SSW 10.4 mph - N/A   Scattered Clouds
2:35 PM 68.0 °F - 50.0 °F 52% 29.97 in 10.0 mi SW 8.1 mph - N/A   Mostly Cloudy
2:55 PM 68.0 °F - 50.0 °F 52% 29.97 in 10.0 mi South 8.1 mph - N/A   Overcast
3:15 PM 68.0 °F - 50.0 °F 52% 29.98 in 10.0 mi South 5.8 mph - N/A   Overcast
3:35 PM 66.2 °F - 50.0 °F 56% 29.99 in 10.0 mi SSW 8.1 mph - N/A   Overcast
3:55 PM 66.2 °F - 50.0 °F 56% 29.99 in 10.0 mi SW 11.5 mph - N/A   Overcast
4:15 PM 66.2 °F - 50.0 °F 56% 29.99 in 10.0 mi SSW 4.6 mph - N/A   Overcast
4:35 PM 66.2 °F - 50.0 °F 56% 29.99 in 10.0 mi South 4.6 mph - N/A   Overcast
4:55 PM 64.4 °F - 50.0 °F 59% 29.99 in 10.0 mi SSW 6.9 mph - N/A   Overcast
5:15 PM 64.4 °F - 51.8 °F 64% 30.00 in 10.0 mi South 4.6 mph - N/A   Overcast
5:35 PM 64.4 °F - 51.8 °F 64% 30.00 in 10.0 mi South 9.2 mph - N/A   Overcast
5:55 PM 62.6 °F - 51.8 °F 68% 30.00 in 10.0 mi South 9.2 mph - N/A   Overcast
6:15 PM 62.6 °F - 51.8 °F 68% 30.00 in 10.0 mi SSW 9.2 mph - N/A   Mostly Cloudy
6:35 PM 60.8 °F - 51.8 °F 72% 30.01 in 10.0 mi SSW 8.1 mph - N/A   Scattered Clouds
6:55 PM 60.8 °F - 51.8 °F 72% 30.02 in 10.0 mi SW 5.8 mph - N/A   Mostly Cloudy
7:15 PM 59.0 °F - 51.8 °F 77% 30.02 in 10.0 mi South 3.5 mph - N/A   Mostly Cloudy
7:35 PM 59.0 °F - 51.8 °F 77% 30.02 in 10.0 mi South 4.6 mph - N/A   Clear
8:15 PM 57.2 °F - 51.8 °F 82% 30.04 in 10.0 mi SSW 4.6 mph - N/A   Scattered Clouds
8:35 PM 57.2 °F - 51.8 °F 82% 30.04 in 10.0 mi SSW 4.6 mph - N/A   Scattered Clouds
8:55 PM 55.4 °F - 51.8 °F 88% 30.05 in 10.0 mi SSW 8.1 mph - N/A   Mostly Cloudy
9:15 PM 55.4 °F - 51.8 °F 88% 30.05 in 10.0 mi SW 9.2 mph - N/A   Mostly Cloudy
10:15 PM 53.6 °F - 51.8 °F 94% 30.06 in 10.0 mi SW 3.5 mph - N/A   Scattered Clouds
10:35 PM 55.4 °F - 51.8 °F 88% 30.06 in 10.0 mi SW 3.5 mph - N/A   Mostly Cloudy
10:55 PM 55.4 °F - 51.8 °F 88% 30.06 in 10.0 mi SW 5.8 mph - N/A   Scattered Clouds
11:15 PM 55.4 °F - 51.8 °F 88% 30.07 in 7.0 mi SSW 5.8 mph - N/A   Mostly Cloudy
11:35 PM 55.4 °F - 51.8 °F 88% 30.07 in 7.0 mi SW 6.9 mph - N/A   Overcast
11:55 PM 55.4 °F - 51.8 °F 88% 30.07 in 7.0 mi SW 5.8 mph - N/A   Overcast